Starlink 31501

operational
NORAD ID: 59359 Int'l Des: 2024-060 Owner: SPXS Country: US Constellation: starlink
LEOCIRCULAR

About Starlink 31501

Description loading...

Live Position

Loading 3D Globe...

Upcoming Passes

Altitude History

Altitude vs Time

uPlot chart will show altitude changes over time

Two-Line Element Set

1 59359U 24060M 25259.13133257 .00002730 00000-0 10864-3 0 9995
2 59359 43.0045 165.9106 0001209 283.3898 76.6819 15.27594856 83369
Epoch: Sep 16, 2025 • Age: 16 hours

Current Status

Altitude 483.5 km
Velocity 7.63 km/s
Sub-Earth Point 24.76°N, 24.66°E
Launch Date Mar 31, 2024
Age 1.4 years
Type internet

Technical Details

Classification Payload
Mass 730.00 kg
Dry Mass 700.00 kg
Total Mass 730.00 kg
Length 0.30 m
Diameter 4.10 m
Span 29.00 m
Shape Box + pan
Manufacturer SPXS
Bus Type Starlink V2M
Phase Status In Orbit
Owner/State SPXS/US

Large Constellations

Loading constellations...